Weather History for Papa, Hungary

Change the Weather History Date:

Monday, October 22, 2012

  Actual Average Record
Temperature  
Mean Temperature 48 °F -  
Max Temperature 62 °F - - ()
Min Temperature 35 °F - - ()
Degree Days  
Heating Degree Days 16    
Moisture  
Dew Point 45 °F    
Average Humidity 96    
Maximum Humidity 100    
Minimum Humidity 68    
Precipitation  
Precipitation 0.00 in - - ()
Sea Level Pressure  
Sea Level Pressure 30.19 in    
Wind  
Wind Speed 1 mph ()    
Max Wind Speed 4 mph    
Max Gust Speed -    
Visibility 1.3 miles    
Events Fog    
T = Trace of Precipitation, MM = Missing Value Source: Averaged Metar Reports

Daily Weather History Graph

Daily Weather History Graph

Search for Another Location

Airport:

Trip Planner

Search our weather history database for the weather conditions in past years. The results will help you decide how hot, cold, wet, or windy it might be!

Date:

Astronomy

Oct. 22, 2012 Rise Set
Actual Time 7:18 AM CEST 5:49 PM CEST
Civil Twilight 6:47 AM CEST 6:20 PM CEST
Nautical Twilight 6:11 AM CEST 6:56 PM CEST
Astronomical Twilight 5:36 AM CEST 7:31 PM CEST
Moon 2:12 PM CEST (10/22) No Moon Set
Length of Visible Light 11h 32m
Length of Day
10h 30m
First Quarter, 53% of the Moon is Illuminated
Oct 22
First Quarter
Oct 29
Full
Nov 7
Last Quarter
Nov 13
New
Nov 20
First Quarter

Hourly Weather History & Observations

Time (CEST) Temp. Windchill Dew Point Humidity Pressure Visibility Wind Dir Wind Speed Gust Speed Precip Events Conditions
12:15 AM 46.4 °F - 46.4 °F 100% 30.18 in 0.0 mi Calm Calm - N/A Fog Fog
12:45 AM 46.4 °F - 46.4 °F 100% 30.18 in 0.0 mi Calm Calm - N/A Fog Fog
1:15 AM 44.6 °F - 44.6 °F 100% 30.18 in 0.0 mi ESE 2.2 mph - N/A Fog Fog
1:45 AM 44.6 °F - 44.6 °F 100% 30.18 in 0.1 mi ESE 2.2 mph - N/A Fog Light Drizzle
2:15 AM 42.8 °F - 42.8 °F 100% 30.18 in 0.1 mi Calm Calm - N/A Fog Fog
2:45 AM 42.8 °F - 42.8 °F 100% 30.18 in 0.1 mi Calm Calm - N/A Fog Fog
3:15 AM 41.0 °F - 41.0 °F 100% 30.15 in 0.1 mi Calm Calm - N/A Fog Fog
3:45 AM - - - N/A% - 0.1 mi Variable 4.5 mph - N/A Fog Fog
4:15 AM 39.2 °F - 39.2 °F 100% 30.18 in 0.1 mi Calm Calm - N/A Fog Fog
4:45 AM 39.2 °F - 39.2 °F 100% 30.18 in 0.1 mi Calm Calm - N/A Fog Fog
5:15 AM 37.4 °F - 37.4 °F 100% 30.18 in 0.1 mi Calm Calm - N/A Fog Fog
5:45 AM 37.4 °F - 37.4 °F 100% 30.18 in 0.1 mi Calm Calm - N/A Fog Fog
6:15 AM 37.4 °F - 37.4 °F 100% 30.18 in 0.1 mi Calm Calm - N/A Fog Fog
6:45 AM 35.6 °F - 35.6 °F 100% 30.18 in 0.1 mi Calm Calm - N/A Fog Fog
7:15 AM 35.6 °F - 35.6 °F 100% 30.18 in 0.1 mi Calm Calm - N/A Fog Fog
7:45 AM 35.6 °F - 35.6 °F 100% 30.18 in 0.3 mi Calm Calm - N/A Fog Fog
8:01 AM 37.4 °F - 37.4 °F 100% 30.18 in 0.6 mi Calm Calm - N/A   Scattered Clouds
8:45 AM 41.0 °F - 41.0 °F 100% 30.18 in 1.2 mi Calm Calm - N/A   Clear
9:09 AM 42.8 °F - 42.8 °F 100% 30.21 in 1.9 mi WNW 2.2 mph - N/A   Clear
9:15 AM 42.8 °F - 42.8 °F 100% 30.21 in 1.9 mi NW 2.2 mph - N/A   Clear
9:41 AM 44.6 °F - 44.6 °F 100% 30.21 in 0.9 mi WNW 2.2 mph - N/A   Mostly Cloudy
9:45 AM 44.6 °F - 44.6 °F 100% 30.21 in 0.9 mi WNW 2.2 mph - N/A   Mostly Cloudy
9:57 AM 44.6 °F - 44.6 °F 100% 30.21 in 0.5 mi WNW 2.2 mph - N/A Fog Fog
10:24 AM 44.6 °F 42.3 °F 44.6 °F 100% 30.21 in 0.2 mi WNW 4.5 mph - N/A Fog Fog
10:45 AM 44.6 °F - 44.6 °F 100% 30.21 in 0.2 mi WNW 2.2 mph - N/A Fog Fog
11:00 AM - - - N/A% - 0.2 mi Variable 4.5 mph - N/A Fog Fog
11:15 AM 46.4 °F - 46.4 °F 100% 30.21 in 0.3 mi NW 2.2 mph - N/A Fog Fog
11:45 AM 48.2 °F - 48.2 °F 100% 30.21 in 0.3 mi NW 2.2 mph - N/A Fog Fog
12:04 PM 48.2 °F - 48.2 °F 100% 30.21 in 0.5 mi NNW 2.2 mph - N/A Fog Fog
12:15 PM 48.2 °F - 48.2 °F 100% 30.21 in 0.5 mi NW 2.2 mph - N/A Fog Fog
12:24 PM 50.0 °F - 50.0 °F 100% 30.21 in 0.7 mi WNW 4.5 mph - N/A   Mostly Cloudy
12:45 PM - - - N/A% - 0.9 mi Variable 4.5 mph - N/A   Mostly Cloudy
12:49 PM 51.8 °F - 51.8 °F 100% 30.18 in 1.9 mi NW 2.2 mph - N/A   Mostly Cloudy
1:03 PM 53.6 °F - 50.0 °F 88% 30.18 in 3.1 mi NW 2.2 mph - N/A   Scattered Clouds
1:15 PM 55.4 °F - 51.8 °F 88% 30.18 in 3.7 mi NNW 2.2 mph - N/A   Partly Cloudy
1:45 PM 57.2 °F - 51.8 °F 82% 30.18 in 3.7 mi NNW 2.2 mph - N/A   Clear
2:15 PM 59.0 °F - 50.0 °F 72% 30.18 in 5.0 mi North 2.2 mph - N/A   Clear
2:45 PM 60.8 °F - 51.8 °F 72% 30.18 in 5.0 mi NNW 2.2 mph - N/A   Clear
3:45 PM - - - N/A% - 1.9 mi Variable 4.5 mph - N/A Fog Fog
4:15 PM 62.6 °F - 51.8 °F 68% 30.15 in 5.0 mi NNW 4.5 mph - N/A   Clear
4:45 PM 62.6 °F - 53.6 °F 72% 30.15 in 5.0 mi NNW 2.2 mph - N/A   Clear
5:15 PM 59.0 °F - 53.6 °F 82% 30.15 in 5.0 mi NNW 2.2 mph - N/A   Clear
5:45 PM 57.2 °F - 51.8 °F 82% 30.18 in 5.0 mi NNW 2.2 mph - N/A   Clear
6:15 PM 53.6 °F - 50.0 °F 88% 30.18 in 3.7 mi Calm Calm - N/A Fog Shallow Fog
6:43 PM 51.8 °F - 51.8 °F 100% 30.18 in 3.1 mi Calm Calm - N/A Fog Shallow Fog
6:45 PM - - - N/A% - 3.1 mi Variable 2.2 mph - N/A Fog Overcast
7:13 PM 48.2 °F - 48.2 °F 100% 30.18 in 1.9 mi Calm Calm - N/A Fog Shallow Fog
7:15 PM 48.2 °F - 48.2 °F 100% 30.18 in 1.9 mi Calm Calm - N/A Fog Shallow Fog
7:45 PM 48.2 °F - 48.2 °F 100% 30.18 in 1.2 mi Calm Calm - N/A Fog Shallow Fog
8:06 PM 46.4 °F - 44.6 °F 93% 30.18 in 0.9 mi Calm Calm - N/A Fog Shallow Fog
8:15 PM 46.4 °F - 46.4 °F 100% 30.18 in 0.9 mi Calm Calm - N/A Fog Clear
8:41 PM 44.6 °F - 44.6 °F 100% 30.18 in 0.5 mi Calm Calm - N/A Fog Fog
8:45 PM 44.6 °F - 44.6 °F 100% 30.18 in 0.5 mi Calm Calm - N/A Fog Fog
8:50 PM - - - N/A% - 0.5 mi Variable 2.2 mph - N/A Fog Fog
9:15 PM 42.8 °F - 42.8 °F 100% 30.18 in 0.5 mi Calm Calm - N/A Fog Fog
9:45 PM - - - N/A% - 0.5 mi Variable 2.2 mph - N/A Fog Fog
10:15 PM 41.0 °F - 41.0 °F 100% 30.21 in 0.5 mi Calm Calm - N/A Fog Fog
10:40 PM 41.0 °F - 41.0 °F 100% 30.21 in 0.2 mi Calm Calm - N/A Fog Fog
10:45 PM 41.0 °F - 41.0 °F 100% 30.21 in 0.2 mi Calm Calm - N/A Fog Fog
10:59 PM 41.0 °F - 41.0 °F 100% 30.21 in 0.1 mi Calm Calm - N/A Fog Fog
11:15 PM 41.0 °F - 41.0 °F 100% 30.21 in 0.1 mi WNW 2.2 mph - N/A Fog Fog
11:45 PM 42.8 °F - 42.8 °F 100% 30.21 in 0.1 mi Calm Calm - N/A Fog Fog